Regional Weather Roundup
Issued by NWS Albany, NY

Home | Current Version | Previous Version | Text Only | Print | Product List | Glossary On
Versions: 1 2 3 4 5 6 7 8 9 10 11 12 13 14 15 16 17 18 19 20 21 22 23 24 25 26 27 28 29 30 31 32 33 34 35 36 37 38 39 40 41 42 43 44 45 46 47 48 49 50
000
ASUS41 KALY 060310
RWRALY

NEW YORK STATE HOURLY WEATHER ROUNDUP
NATIONAL WEATHER SERVICE ALBANY NY
1000 PM EST FRI FEB 05 2016

NOTE: "FAIR" INDICATES FEW OR NO CLOUDS BELOW 12,000 FEET WITH NO
SIGNIFICANT WEATHER AND/OR NO OBSTRUCTIONS TO VISIBILITY.

NYZ032-033-038>043-046>054-057>066-NYZ062>081-060400-
EAST


CITY           SKY/WX    TMP DP  RH WIND       PRES   REMARKS
ALBANY         CLEAR     27  13  55 W6        30.30R WCI  20
GLENS FALLS    CLEAR     27  13  55 SW5       30.27R WCI  22
POUGHKEEPSIE   PTCLDY    32  11  41 NW5       30.30R WCI  27
NEWBURGH       CLEAR     30  16  55 NW16      30.28  WCI  19
MONTGOMERY     CLEAR     30  15  53 NW6       30.29R WCI  24
WHITE PLAINS   CLEAR     31  14  49 W17       30.26S WCI  19
ISLIP          CLEAR     29  16  58 W6        30.27R WCI  23
NEW YORK CITY  CLEAR     35  17  47 NW16G26   30.30R WCI  25
CENTRAL PARK   CLEAR     33  14  45 NW7       30.34R WCI  27
$$

NYZ005>009-017-018-044>046-055-056-060400-
CENTRAL


CITY           SKY/WX    TMP DP  RH WIND       PRES   REMARKS
FULTON         CLOUDY    32  23  69 W9        30.30S WCI  24
SYRACUSE       FLURRIES  29  22  75 SW9       30.30F WCI  20
ROME           PTCLDY    22  16  78 E5        30.32S WCI  16
ELMIRA         CLEAR     27  18  69 S7        30.31F WCI  19
BINGHAMTON     CLOUDY    24  16  71 W5        30.25S WCI  18
MONTICELLO     CLEAR     23  16  74 W7        30.27S WCI  15
$$

NYZ026>034-041>043-060400-
NORTH


CITY           SKY/WX    TMP DP  RH WIND       PRES   REMARKS
WATERTOWN      CLEAR     25  20  81 CALM      30.27F
FORT DRUM      NOT AVBL
MASSENA        CLEAR     17  11  77 CALM      30.26F
SARANAC LAKE   CLEAR     13   9  84 S5        30.16F WCI   5
PLATTSBURGH    CLEAR     25  10  53 VRB3      30.24S
$$

NYZ001>004-010>016-019>021-060400-
WEST


CITY           SKY/WX    TMP DP  RH WIND       PRES   REMARKS
NIAGARA FALLS  CLOUDY    31  24  75 SW9       30.29F WCI  23
BUFFALO        CLOUDY    30  22  72 SW14      30.30F WCI  19
DUNKIRK        CLEAR     26  16  65 S9        30.32F WCI  17
JAMESTOWN      PTCLDY    23  12  63 SW6       30.26F WCI  16
WELLSVILLE     CLEAR     22  13  68 SW5       30.26F WCI  16
ROCHESTER      MOCLDY    28  21  75 SW9       30.31F WCI  19
PENN YAN       CLEAR     27  18  69 SW8       30.30F WCI  19
$$

             KEY
       WCI = WIND CHILL INDEX
       VSB = VISIBILITY
       HX  = HEAT INDEX
$$



USA.gov is the U.S. government's official web portal to all federal, state and local government web resources and services.